Weather in Kačerginės

Lithuania     54°55′58″N   23°42′43″E
temp.,
°C
wind,
m/s
gust,
m/s
humid.,
%
clouds,
%
prec.,
mm/h
press.,
hPa
HPBL,
m
27 february, sat
sat2723:00+3w6129083 0.0 1017529
02:00+2wnw5119384 0.0 1018321
05:00+2wnw5139177 0.0 1018434
08:00+1nw5148838 0.0 1020494
11:00+4nnw711800 0.0 1022767
14:00+5nnw711700 0.0 10251179
17:00+4nw511732 0.0 1025685
20:00+1nw411811 0.0 1027305
28 february, sun
sun2823:000nw49880 0.0 1028266
02:000wnw489021 0.0 1029274
05:00+1wnw4108794 0.0 1027381
08:00+1w5118797 0.1 1026308
11:00+5wnw7127192 0.0 1025787
14:00+7nw5117496 0.1 10251100
17:00+4nnw51188100 0.2 1024494
20:00+2nnw369260 0.2 1027120
1 march, mon
mon123:00+2nw359477 0.0 1028132
02:00+1wnw349538 0.0 103084
05:000wnw35961 0.0 1029126
08:00+1wnw37951 0.0 1030154
11:00+6nw48760 0.0 1030458
14:00+9w57700 0.0 1030569
17:00+7wsw5127537 0.0 1028486
20:00+4w7158355 0.0 1028523
2 march, tue
tue223:00+3w6119222 0.0 1028420
02:00+1wnw499541 0.0 1029260
05:000w36959 0.0 1028148
08:00+1w369325 0.0 1029144
11:00+5w45780 0.0 1029269
14:00+8w57710 0.0 1028444
17:00+7w59780 0.0 1027431
20:00+3wnw59940 0.0 1028285
3 march, wed
wed323:00+2wnw479555 0.0 1029263
02:00+2wnw359471 0.0 1029231
05:00+1wnw359695 0.0 1029226
08:00+1w359798 0.0 1028242
11:00+2w2390100 0.0 1028271
14:00+6wsw237482 0.0 1027506
17:00+5wsw34790 0.0 1025503
20:00+1wsw36940 0.0 1023218